FW1442 Weather Reports


time (UTC)temp
C
wind
direction
speed
KPH
gust
KPH
rain 1hr
cm
rain 24hr
cm
rain mn
cm
humidity
%
barometer
mb
20260505072903 27 0.0 0.0 0.00 0.00 0.00 29 1017.5
20260505071904 27 0.0 0.0 0.00 0.00 0.00 29 1017.5
20260505070904 27 0.0 0.0 0.00 0.00 0.00 29 1017.5
20260505065903 27 0.0 0.0 0.00 0.00 0.00 28 1017.6
20260505065805 27 0.0 0.0 0.00 0.00 0.00 28 1017.6
20260505064804 27 0.0 0.0 0.00 0.00 0.00 28 1017.6
20260505063805 27 0.0 0.0 0.00 0.00 0.00 28 1017.6
20260505062805 26 0.0 0.0 0.00 0.00 0.00 29 1017.7
20260505061804 26 0.0 0.0 0.00 0.00 0.00 31 1018.0
20260505005904 26 0.0 0.0 0.00 0.00 0.00 30 1017.9
20260505004904 26 0.0 0.0 0.00 0.00 0.00 31 1017.9
20260505003904 26 0.0 0.0 0.00 0.00 0.00 30 1018.0
20260505002904 26 0.0 0.0 0.00 0.00 0.00 30 1018.0
20260505001904 26 0.0 0.0 0.00 0.00 0.00 30 1018.0
20260505000904 26 0.0 0.0 0.00 0.00 0.00 29 1018.0
20260504235904 26 0.0 0.0 0.00 0.00 0.00 29 1018.0
20260504234904 26 0.0 0.0 0.00 0.00 0.00 31 1018.1
20260504233905 26 0.0 0.0 0.00 0.00 0.00 29 1018.2
20260504232904 26 0.0 0.0 0.00 0.00 0.00 29 1018.3
20260504231904 26 0.0 0.0 0.00 0.00 0.00 29 1018.2
20260504230904 26 0.0 0.0 0.00 0.00 0.00 29 1018.3
20260504225904 26 0.0 0.0 0.00 0.00 0.00 29 1018.4
20260504224904 27 0.0 0.0 0.00 0.00 0.00 29 1018.4
20260504223904 27 0.0 0.0 0.00 0.00 0.00 29 1018.4
20260504222904 27 0.0 0.0 0.00 0.00 0.00 28 1018.4
20260504221904 27 0.0 0.0 0.00 0.00 0.00 28 1018.5
20260504220904 27 0.0 0.0 0.00 0.00 0.00 30 1018.4
20260504215904 27 0.0 0.0 0.00 0.00 0.00 29 1018.4
20260504214904 27 0.0 0.0 0.00 0.00 0.00 29 1018.5
20260504213904 27 0.0 0.0 0.00 0.00 0.00 28 1018.5
20260504212904 27 0.0 0.0 0.00 0.00 0.00 29 1018.5
20260504211905 27 0.0 0.0 0.00 0.00 0.00 30 1018.5
20260504210904 27 0.0 0.0 0.00 0.00 0.00 28 1018.4
20260504205904 27 0.0 0.0 0.00 0.00 0.00 29 1018.3
20260504204904 27 0.0 0.0 0.00 0.00 0.00 29 1018.3
20260504203904 27 0.0 0.0 0.00 0.00 0.00 28 1018.3
20260504202903 27 0.0 0.0 0.00 0.00 0.00 29 1018.2
20260504201904 27 0.0 0.0 0.00 0.00 0.00 29 1018.4
20260504200904 27 0.0 0.0 0.00 0.00 0.00 29 1018.3
20260504195904 27 0.0 0.0 0.00 0.00 0.00 28 1018.2
20260504194904 27 0.0 0.0 0.00 0.00 0.00 28 1018.2
20260504193904 27 0.0 0.0 0.00 0.00 0.00 28 1018.3
20260504192904 28 0.0 0.0 0.00 0.00 0.00 27 1018.4
20260504191905 27 0.0 0.0 0.00 0.00 0.00 27 1018.2
20260504190905 27 0.0 0.0 0.00 0.00 0.00 27 1018.3
20260504185905 26 0.0 0.0 0.00 0.00 0.00 27 1018.3
20260504184905 26 0.0 0.0 0.00 0.00 0.00 26 1018.3
20260504183904 26 0.0 0.0 0.00 0.00 0.00 26 1018.2
20260504182905 26 0.0 0.0 0.00 0.00 0.00 26 1018.2
20260504181904 27 0.0 0.0 0.00 0.00 0.00 25 1018.0
20260504180904 27 0.0 0.0 0.00 0.00 0.00 26 1018.0
20260504175904 27 0.0 0.0 0.00 0.00 0.00 26 1017.9
20260504174904 27 0.0 0.0 0.00 0.00 0.00 26 1017.8
20260504173904 27 0.0 0.0 0.00 0.00 0.00 27 1017.8
20260504172904 27 0.0 0.0 0.00 0.00 0.00 25 1017.7
20260504171904 27 0.0 0.0 0.00 0.00 0.00 25 1017.7
20260504170904 27 0.0 0.0 0.00 0.00 0.00 25 1017.8
20260504150904 28 0.0 0.0 0.00 0.00 0.00 21 1018.0
20260504140905 27 0.0 0.0 0.00 0.00 0.00 20 1018.5
20260504081904 27 0.0 0.0 0.00 0.00 0.00 29 1021.5
20260504080904 27 0.0 0.0 0.00 0.00 0.00 28 1021.6